Time,TemperatureF,DewpointF,PressureIn,WindDirection,WindDirectionDegrees,WindSpeedMPH,WindSpeedGustMPH,Humidity,HourlyPrecipIn,Conditions,Clouds,dailyrainin,SoftwareType,DateUTC
2013-03-15 00:03:00,26.0,14.0,29.83,NNW,341,5.0,9.0,61,0.00,,,0.00,,2013-03-15 04:03:00,
2013-03-15 00:12:00,26.0,14.0,29.83,NNW,341,5.0,9.0,61,0.00,,,0.00,,2013-03-15 04:12:00,
2013-03-15 00:23:00,26.0,15.0,29.83,NNW,341,4.0,10.0,62,0.00,,,0.00,,2013-03-15 04:23:00,
2013-03-15 00:32:00,26.0,15.0,29.83,West,279,4.0,11.0,63,0.00,,,0.00,,2013-03-15 04:32:00,
2013-03-15 00:43:00,26.0,15.0,29.83,West,279,4.0,11.0,63,0.00,,,0.00,,2013-03-15 04:43:00,
2013-03-15 00:53:00,26.0,16.0,29.83,WNW,293,1.0,9.0,64,0.00,,,0.00,,2013-03-15 04:53:00,
2013-03-15 01:02:00,26.0,16.0,29.83,NNW,342,3.0,6.0,66,0.00,,,0.00,,2013-03-15 05:02:00,
2013-03-15 01:12:00,26.0,16.0,29.83,NNW,342,3.0,6.0,66,0.00,,,0.00,,2013-03-15 05:12:00,
2013-03-15 01:22:00,25.0,16.0,29.83,North,11,5.0,9.0,68,0.00,,,0.00,,2013-03-15 05:22:00,
2013-03-15 01:32:00,25.0,16.0,29.84,NNW,344,4.0,9.0,68,0.00,,,0.00,,2013-03-15 05:32:00,
2013-03-15 01:42:00,25.0,16.0,29.84,NNW,344,4.0,9.0,68,0.00,,,0.00,,2013-03-15 05:42:00,
2013-03-15 01:52:00,25.0,16.0,29.85,North,350,3.0,9.0,68,0.00,,,0.00,,2013-03-15 05:52:00,
2013-03-15 02:02:00,24.0,15.0,29.85,NNW,342,2.0,8.0,68,0.00,,,0.00,,2013-03-15 06:02:00,
2013-03-15 02:12:00,24.0,15.0,29.85,NNW,342,2.0,8.0,68,0.00,,,0.00,,2013-03-15 06:12:00,
2013-03-15 02:22:00,24.0,15.0,29.86,North,360,2.0,6.0,68,0.00,,,0.00,,2013-03-15 06:22:00,
2013-03-15 02:32:00,23.0,14.0,29.86,NW,326,4.0,7.0,68,0.00,,,0.00,,2013-03-15 06:32:00,
2013-03-15 02:42:00,23.0,14.0,29.86,NW,326,4.0,7.0,68,0.00,,,0.00,,2013-03-15 06:42:00,
2013-03-15 02:53:00,23.0,14.0,29.86,North,355,3.0,6.0,67,0.00,,,0.00,,2013-03-15 06:53:00,
2013-03-15 03:02:00,23.0,14.0,29.86,NNW,341,1.0,7.0,67,0.00,,,0.00,,2013-03-15 07:02:00,
2013-03-15 03:12:00,23.0,14.0,29.86,NNW,341,1.0,7.0,67,0.00,,,0.00,,2013-03-15 07:12:00,
2013-03-15 03:22:00,22.0,13.0,29.86,North,355,4.0,7.0,67,0.00,,,0.00,,2013-03-15 07:22:00,
2013-03-15 03:32:00,22.0,13.0,29.86,NNW,334,3.0,13.0,67,0.00,,,0.00,,2013-03-15 07:32:00,
2013-03-15 03:42:00,22.0,13.0,29.86,NNW,334,3.0,13.0,67,0.00,,,0.00,,2013-03-15 07:42:00,
2013-03-15 03:52:00,22.0,13.0,29.86,North,355,2.0,7.0,67,0.00,,,0.00,,2013-03-15 07:52:00,
2013-03-15 04:02:00,22.0,13.0,29.85,WNW,303,2.0,6.0,67,0.00,,,0.00,,2013-03-15 08:02:00,
2013-03-15 04:12:00,22.0,13.0,29.85,WNW,303,2.0,6.0,67,0.00,,,0.00,,2013-03-15 08:12:00,
2013-03-15 04:23:00,21.0,11.0,29.85,WNW,290,2.0,5.0,66,0.00,,,0.00,,2013-03-15 08:23:00,
2013-03-15 04:33:00,21.0,12.0,29.85,West,281,1.0,4.0,67,0.00,,,0.00,,2013-03-15 08:33:00,
2013-03-15 04:42:00,21.0,12.0,29.85,West,281,1.0,4.0,67,0.00,,,0.00,,2013-03-15 08:42:00,
2013-03-15 04:52:00,21.0,12.0,29.85,NW,310,1.0,6.0,67,0.00,,,0.00,,2013-03-15 08:52:00,
2013-03-15 05:02:00,21.0,12.0,29.85,WNW,284,0.0,7.0,67,0.00,,,0.00,,2013-03-15 09:02:00,
2013-03-15 05:12:00,21.0,12.0,29.85,WNW,284,0.0,7.0,67,0.00,,,0.00,,2013-03-15 09:12:00,
2013-03-15 05:22:00,21.0,12.0,29.85,West,277,1.0,6.0,67,0.00,,,0.00,,2013-03-15 09:22:00,
2013-03-15 05:33:00,20.0,11.0,29.85,NW,320,1.0,4.0,67,0.00,,,0.00,,2013-03-15 09:33:00,
2013-03-15 05:43:00,20.0,11.0,29.85,NW,320,1.0,4.0,67,0.00,,,0.00,,2013-03-15 09:43:00,
2013-03-15 05:53:00,20.0,11.0,29.85,NW,306,2.0,4.0,67,0.00,,,0.00,,2013-03-15 09:53:00,
2013-03-15 06:03:00,20.0,11.0,29.85,NW,324,1.0,3.0,66,0.00,,,0.00,,2013-03-15 10:03:00,
2013-03-15 06:12:00,20.0,11.0,29.85,NW,324,1.0,3.0,66,0.00,,,0.00,,2013-03-15 10:12:00,
2013-03-15 06:23:00,20.0,11.0,29.84,WNW,294,0.0,2.0,67,0.00,,,0.00,,2013-03-15 10:23:00,
2013-03-15 06:33:00,20.0,11.0,29.84,WNW,300,2.0,4.0,68,0.00,,,0.00,,2013-03-15 10:33:00,
2013-03-15 06:42:00,20.0,11.0,29.84,WNW,300,2.0,4.0,68,0.00,,,0.00,,2013-03-15 10:42:00,
2013-03-15 06:52:00,20.0,11.0,29.83,WNW,295,1.0,5.0,69,0.00,,,0.00,,2013-03-15 10:52:00,
2013-03-15 07:03:00,20.0,11.0,29.83,WNW,294,1.0,2.0,69,0.00,,,0.00,,2013-03-15 11:03:00,
2013-03-15 07:12:00,20.0,11.0,29.83,WNW,294,1.0,2.0,69,0.00,,,0.00,,2013-03-15 11:12:00,
2013-03-15 07:23:00,20.0,12.0,29.83,WNW,294,0.0,2.0,70,0.00,,,0.00,,2013-03-15 11:23:00,
2013-03-15 07:32:00,20.0,12.0,29.83,WNW,284,0.0,3.0,72,0.00,,,0.00,,2013-03-15 11:32:00,
2013-03-15 07:42:00,20.0,12.0,29.83,WNW,284,0.0,3.0,72,0.00,,,0.00,,2013-03-15 11:42:00,
2013-03-15 07:52:00,19.0,12.0,29.82,WNW,285,0.0,2.0,73,0.00,,,0.00,,2013-03-15 11:52:00,
2013-03-15 08:02:00,19.0,12.0,29.82,WNW,284,0.0,2.0,74,0.00,,,0.00,,2013-03-15 12:02:00,
2013-03-15 08:12:00,19.0,12.0,29.81,WNW,285,0.0,2.0,74,0.00,,,0.00,,2013-03-15 12:12:00,
2013-03-15 08:23:00,19.0,12.0,29.81,WNW,285,0.0,2.0,74,0.00,,,0.00,,2013-03-15 12:23:00,
2013-03-15 08:32:00,19.0,12.0,29.81,WNW,284,0.0,0.0,74,0.00,,,0.00,,2013-03-15 12:32:00,
2013-03-15 08:42:00,19.0,12.0,29.81,WNW,284,0.0,0.0,74,0.00,,,0.00,,2013-03-15 12:42:00,
2013-03-15 08:52:00,20.0,13.0,29.81,WNW,284,0.0,1.0,73,0.00,,,0.00,,2013-03-15 12:52:00,
2013-03-15 09:02:00,22.0,14.0,29.80,WNW,284,0.0,2.0,70,0.00,,,0.00,,2013-03-15 13:02:00,
2013-03-15 09:12:00,22.0,14.0,29.80,WNW,284,0.0,2.0,70,0.00,,,0.00,,2013-03-15 13:12:00,
2013-03-15 09:22:00,23.0,14.0,29.80,WNW,284,0.0,2.0,68,0.00,,,0.00,,2013-03-15 13:22:00,
2013-03-15 09:32:00,25.0,15.0,29.79,WNW,286,0.0,3.0,66,0.00,,,0.00,,2013-03-15 13:32:00,
2013-03-15 09:42:00,25.0,15.0,29.79,WNW,286,0.0,3.0,66,0.00,,,0.00,,2013-03-15 13:42:00,
2013-03-15 09:53:00,25.0,15.0,29.79,SSW,205,0.0,4.0,66,0.00,,,0.00,,2013-03-15 13:53:00,
2013-03-15 10:02:00,27.0,16.0,29.78,South,176,2.0,4.0,64,0.00,,,0.00,,2013-03-15 14:02:00,
2013-03-15 10:12:00,27.0,16.0,29.78,South,176,2.0,4.0,64,0.00,,,0.00,,2013-03-15 14:12:00,
2013-03-15 10:22:00,27.0,17.0,29.78,SSE,149,1.0,3.0,65,0.00,,,0.00,,2013-03-15 14:22:00,
2013-03-15 10:32:00,29.0,18.0,29.77,SSE,155,0.0,3.0,63,0.00,,,0.00,,2013-03-15 14:32:00,
2013-03-15 10:42:00,29.0,18.0,29.77,SSE,155,0.0,3.0,63,0.00,,,0.00,,2013-03-15 14:42:00,
2013-03-15 10:52:00,29.0,17.0,29.77,South,171,2.0,4.0,61,0.00,,,0.00,,2013-03-15 14:52:00,
2013-03-15 11:02:00,31.0,19.0,29.75,SE,126,2.0,4.0,60,0.00,,,0.00,,2013-03-15 15:02:00,
2013-03-15 11:13:00,31.0,19.0,29.75,SE,126,2.0,4.0,60,0.00,,,0.00,,2013-03-15 15:13:00,
2013-03-15 11:23:00,31.0,19.0,29.75,ESE,117,1.0,3.0,61,0.00,,,0.00,,2013-03-15 15:23:00,
2013-03-15 11:33:00,32.0,20.0,29.72,SSE,162,1.0,2.0,61,0.00,,,0.00,,2013-03-15 15:33:00,
2013-03-15 11:42:00,32.0,19.0,29.71,SSE,163,3.0,4.0,59,0.00,,,0.00,,2013-03-15 15:42:00,
2013-03-15 11:52:00,32.0,19.0,29.71,SSE,163,3.0,4.0,59,0.00,,,0.00,,2013-03-15 15:52:00,
2013-03-15 12:03:00,31.0,19.0,29.70,SSE,159,1.0,4.0,61,0.00,,,0.00,,2013-03-15 16:03:00,
2013-03-15 12:12:00,32.0,19.0,29.69,SE,129,0.0,3.0,57,0.00,,,0.00,,2013-03-15 16:12:00,
2013-03-15 12:23:00,32.0,19.0,29.69,SE,129,0.0,3.0,57,0.00,,,0.00,,2013-03-15 16:23:00,
2013-03-15 12:32:00,33.0,19.0,29.68,SSW,210,0.0,2.0,57,0.00,,,0.00,,2013-03-15 16:32:00,
2013-03-15 12:42:00,33.0,19.0,29.68,SSW,210,0.0,2.0,57,0.00,,,0.00,,2013-03-15 16:42:00,
2013-03-15 12:52:00,33.0,19.0,29.67,ESE,111,1.0,4.0,57,0.00,,,0.00,,2013-03-15 16:52:00,
2013-03-15 13:02:00,33.0,19.0,29.66,South,188,2.0,5.0,57,0.00,,,0.00,,2013-03-15 17:02:00,
2013-03-15 13:12:00,33.0,19.0,29.66,South,188,2.0,5.0,57,0.00,,,0.00,,2013-03-15 17:12:00,
2013-03-15 13:22:00,33.0,19.0,29.65,ESE,122,0.0,3.0,56,0.00,,,0.00,,2013-03-15 17:22:00,
2013-03-15 13:32:00,34.0,20.0,29.65,ESE,122,0.0,1.0,56,0.00,,,0.00,,2013-03-15 17:32:00,
2013-03-15 13:42:00,34.0,20.0,29.65,ESE,122,0.0,1.0,56,0.00,,,0.00,,2013-03-15 17:42:00,
2013-03-15 13:53:00,34.0,24.0,29.64,West,273,8.0,13.0,67,0.00,,,0.00,,2013-03-15 17:53:00,
2013-03-15 14:02:00,33.0,26.0,29.64,SW,234,2.0,7.0,75,0.00,,,0.00,,2013-03-15 18:02:00,
2013-03-15 14:12:00,33.0,26.0,29.64,SW,234,2.0,7.0,75,0.00,,,0.00,,2013-03-15 18:12:00,
2013-03-15 14:22:00,33.0,27.0,29.63,SSW,196,0.0,8.0,79,0.00,,,0.00,,2013-03-15 18:22:00,
2013-03-15 14:32:00,34.0,28.0,29.61,SSE,161,0.0,3.0,78,0.00,,,0.00,,2013-03-15 18:32:00,
2013-03-15 14:42:00,34.0,28.0,29.61,SSE,161,0.0,3.0,78,0.00,,,0.00,,2013-03-15 18:42:00,
2013-03-15 14:52:00,34.0,28.0,29.60,SE,143,2.0,3.0,77,0.00,,,0.00,,2013-03-15 18:52:00,
2013-03-15 15:02:00,34.0,28.0,29.60,SE,130,1.0,3.0,77,0.00,,,0.00,,2013-03-15 19:02:00,
2013-03-15 15:12:00,34.0,28.0,29.60,SE,130,1.0,3.0,77,0.00,,,0.00,,2013-03-15 19:12:00,
2013-03-15 15:22:00,35.0,29.0,29.59,SE,130,0.0,2.0,77,0.00,,,0.00,,2013-03-15 19:22:00,
2013-03-15 15:32:00,35.0,28.0,29.59,SE,130,0.0,2.0,74,0.00,,,0.00,,2013-03-15 19:32:00,
2013-03-15 15:42:00,35.0,28.0,29.59,SE,130,0.0,2.0,74,0.00,,,0.00,,2013-03-15 19:42:00,
2013-03-15 15:52:00,36.0,27.0,29.59,NW,309,0.0,7.0,70,0.00,,,0.00,,2013-03-15 19:52:00,
2013-03-15 16:02:00,36.0,27.0,29.59,SSW,193,3.0,6.0,70,0.00,,,0.00,,2013-03-15 20:02:00,
2013-03-15 16:12:00,36.0,27.0,29.59,SSW,193,3.0,6.0,70,0.00,,,0.00,,2013-03-15 20:12:00,
2013-03-15 16:22:00,36.0,27.0,29.58,SSW,212,4.0,8.0,69,0.00,,,0.00,,2013-03-15 20:22:00,
2013-03-15 16:32:00,36.0,28.0,29.58,SSW,192,2.0,16.0,72,0.00,,,0.00,,2013-03-15 20:32:00,
2013-03-15 16:42:00,36.0,28.0,29.58,SSW,192,2.0,16.0,72,0.00,,,0.00,,2013-03-15 20:42:00,
2013-03-15 16:52:00,36.0,28.0,29.58,ESE,123,3.0,6.0,73,0.00,,,0.00,,2013-03-15 20:52:00,
2013-03-15 17:02:00,36.0,29.0,29.58,WSW,238,1.0,6.0,74,0.00,,,0.00,,2013-03-15 21:02:00,
2013-03-15 17:12:00,36.0,29.0,29.58,WSW,238,1.0,6.0,74,0.00,,,0.00,,2013-03-15 21:12:00,
2013-03-15 17:22:00,36.0,29.0,29.58,SSW,205,3.0,6.0,75,0.00,,,0.00,,2013-03-15 21:22:00,
2013-03-15 17:33:00,36.0,29.0,29.58,WSW,255,2.0,7.0,77,0.00,,,0.00,,2013-03-15 21:33:00,
2013-03-15 17:43:00,36.0,29.0,29.58,WSW,255,2.0,7.0,77,0.00,,,0.00,,2013-03-15 21:43:00,
2013-03-15 17:53:00,36.0,30.0,29.58,WSW,251,1.0,4.0,79,0.00,,,0.00,,2013-03-15 21:53:00,
2013-03-15 18:03:00,35.0,30.0,29.58,NNE,21,1.0,7.0,81,0.00,,,0.00,,2013-03-15 22:03:00,
2013-03-15 18:14:00,35.0,30.0,29.58,NNE,21,1.0,7.0,81,0.00,,,0.00,,2013-03-15 22:14:00,
2013-03-15 18:22:00,36.0,30.0,29.58,SW,219,0.0,11.0,80,0.00,,,0.00,,2013-03-15 22:22:00,
2013-03-15 18:32:00,35.0,29.0,29.58,SSW,207,0.0,4.0,80,0.00,,,0.00,,2013-03-15 22:32:00,
2013-03-15 18:42:00,35.0,29.0,29.58,SSW,207,0.0,4.0,80,0.00,,,0.00,,2013-03-15 22:42:00,
2013-03-15 18:53:00,35.0,29.0,29.58,SW,215,1.0,5.0,79,0.00,,,0.00,,2013-03-15 22:53:00,
2013-03-15 19:02:00,36.0,29.0,29.58,SSW,192,1.0,5.0,77,0.00,,,0.00,,2013-03-15 23:02:00,
2013-03-15 19:12:00,36.0,29.0,29.58,SSW,192,1.0,5.0,77,0.00,,,0.00,,2013-03-15 23:12:00,
2013-03-15 19:22:00,36.0,29.0,29.58,East,91,1.0,4.0,74,0.00,,,0.00,,2013-03-15 23:22:00,
2013-03-15 19:32:00,36.0,28.0,29.59,NNW,333,0.0,5.0,72,0.00,,,0.00,,2013-03-15 23:32:00,
2013-03-15 19:42:00,36.0,28.0,29.59,NNW,333,0.0,5.0,72,0.00,,,0.00,,2013-03-15 23:42:00,
2013-03-15 19:53:00,36.0,28.0,29.59,WSW,256,1.0,7.0,73,0.00,,,0.00,,2013-03-15 23:53:00,
2013-03-15 20:03:00,36.0,28.0,29.59,WNW,295,1.0,6.0,72,0.00,,,0.00,,2013-03-16 00:03:00,
2013-03-15 20:12:00,36.0,28.0,29.59,WNW,295,1.0,6.0,72,0.00,,,0.00,,2013-03-16 00:12:00,
2013-03-15 20:22:00,36.0,28.0,29.60,West,259,1.0,8.0,71,0.00,,,0.00,,2013-03-16 00:22:00,
2013-03-15 20:32:00,36.0,28.0,29.59,WSW,237,0.0,4.0,71,0.00,,,0.00,,2013-03-16 00:32:00,
2013-03-15 20:42:00,36.0,28.0,29.59,WSW,237,0.0,4.0,71,0.00,,,0.00,,2013-03-16 00:42:00,
2013-03-15 20:52:00,36.0,27.0,29.60,West,260,5.0,9.0,70,0.00,,,0.00,,2013-03-16 00:52:00,
2013-03-15 21:02:00,34.0,29.0,29.62,North,360,6.0,10.0,82,0.00,,,0.00,,2013-03-16 01:02:00,
2013-03-15 21:12:00,34.0,29.0,29.62,North,360,6.0,10.0,82,0.00,,,0.00,,2013-03-16 01:12:00,
2013-03-15 21:22:00,32.0,29.0,29.62,NNE,19,0.0,7.0,90,0.00,,,0.00,,2013-03-16 01:22:00,
2013-03-15 21:32:00,32.0,30.0,29.62,WSW,254,0.0,10.0,91,0.02,,,0.02,,2013-03-16 01:32:00,
2013-03-15 21:42:00,32.0,30.0,29.62,WSW,254,0.0,10.0,91,0.02,,,0.02,,2013-03-16 01:42:00,
2013-03-15 21:53:00,32.0,30.0,29.62,WNW,299,1.0,10.0,92,0.02,,,0.02,,2013-03-16 01:53:00,
2013-03-15 22:02:00,32.0,30.0,29.62,NNW,342,0.0,6.0,91,0.02,,,0.02,,2013-03-16 02:02:00,
2013-03-15 22:12:00,32.0,30.0,29.62,NNW,342,0.0,6.0,91,0.02,,,0.02,,2013-03-16 02:12:00,
2013-03-15 22:23:00,32.0,29.0,29.63,WSW,249,2.0,9.0,87,0.03,,,0.03,,2013-03-16 02:23:00,
2013-03-15 22:32:00,32.0,27.0,29.63,West,271,0.0,7.0,82,0.01,,,0.03,,2013-03-16 02:32:00,
2013-03-15 22:42:00,32.0,27.0,29.63,West,271,0.0,7.0,82,0.01,,,0.03,,2013-03-16 02:42:00,
2013-03-15 22:52:00,32.0,26.0,29.64,West,278,0.0,6.0,79,0.01,,,0.03,,2013-03-16 02:52:00,
2013-03-15 23:02:00,32.0,26.0,29.65,North,355,1.0,9.0,77,0.01,,,0.03,,2013-03-16 03:02:00,
2013-03-15 23:12:00,32.0,26.0,29.65,North,355,1.0,9.0,77,0.01,,,0.03,,2013-03-16 03:12:00,
2013-03-15 23:22:00,32.0,24.0,29.65,West,281,1.0,4.0,73,0.00,,,0.03,,2013-03-16 03:22:00,
2013-03-15 23:32:00,32.0,26.0,29.66,NNW,348,1.0,5.0,77,0.00,,,0.03,,2013-03-16 03:32:00,
2013-03-15 23:43:00,32.0,26.0,29.66,NNW,348,1.0,5.0,77,0.00,,,0.03,,2013-03-16 03:43:00,
2013-03-15 23:53:00,32.0,23.0,29.67,NNW,346,2.0,6.0,69,0.00,,,0.03,,2013-03-16 03:53:00,